Content
SEND FEEDBACK

Daily
Averages
Monthly
Summary
United States of America

SIERRA HEIGHTS, CALIFORNIA


Home > North America > United States > California
Elevation: 1850 feet     Latitude: 34 10N     Longitude: 117 27W

WEATHER
 
SELECT A DAY
Number of Records: 164,322;   Date Range: 1/1/95 - 7/7/14
 
SHARE

PRINT THIS DATA

[ ← Previous Day ]
WEATHER ALMANAC - FEBRUARY 13, 2013
[ Next Day → ]
[ °C ]   °F
Weather ElementAverageHighLow
Temperature50 °F64.9 °F (3:50 pm)36 °F (4:50 am)
Dewpoint14.9 °F19 °F (5:50 pm)10.9 °F (1:50 am)
Humidity25.8 %37 % (4:50 am)16 % (2:50 pm)
Barometer30.22 in30.30 in (7:50 am)30.14 in (4:50 pm)
Wind Speed6.8 mph15 mph (5:50 am)
Weather ElementAverage
Visibility10 mi
Wind DirectionS (176.4 °)

Weather ElementTotal
Precipitation---
Heating Degree Days14.6 (Base 65)
Growing Degree Days0.5 (Base 50)
Averaged from 22 records on February 13, 2013
WEATHER CONDITIONS BREAKOUT
WIND DIRECTION BREAKOUT
WEATHER BY HOUR - FEBRUARY 13, 2013
[ °C ]   °F
Local TimeTemperatureDewpointHumidityBarometerVisibilityWind DirectionWind SpeedGust SpeedPrecipitationEventsConditions
1:50 AM39.0 °F10.9 °F32 %30.26 in10.0 miWest (270°)10.4 mphClear
2:50 AM37.9 °F10.9 °F33 %30.25 in10.0 miWest (270°)13.8 mphClear
3:50 AM37.0 °F10.9 °F34 %30.25 in10.0 miWest (270°)11.5 mphClear
4:50 AM36.0 °F12.0 °F37 %30.26 in10.0 miWest (270°)10.4 mphClear
5:50 AM37.0 °F10.9 °F34 %30.27 in10.0 miWest (270°)15.0 mphClear
6:50 AM36.0 °F12.0 °F37 %30.29 in10.0 miWest (270°)12.7 mphClear
7:50 AM39.9 °F12.9 °F33 %30.30 in10.0 miWest (280°)11.5 mphClear
8:50 AM45.0 °F12.9 °F27 %30.30 in10.0 miWest (270°)12.7 mphClear
9:50 AM52.0 °F15.1 °F23 %30.30 in10.0 miWest (280°)11.5 mphClear
10:50 AM57.0 °F15.1 °F19 %30.29 in10.0 miWest (260°)3.5 mphClear
11:50 AM60.1 °F16.0 °F18 %30.25 in10.0 miNE (40°)5.8 mphClear
12:50 PM61.0 °F16.0 °F17 %30.22 in10.0 miCalmClear
1:50 PM62.1 °F17.1 °F18 %30.19 in10.0 miVariable3.5 mphClear
2:50 PM64.0 °F17.1 °F16 %30.16 in10.0 miCalmClear
3:50 PM64.9 °F17.1 °F16 %30.15 in10.0 miESE (120°)3.5 mphClear
4:50 PM64.9 °F17.1 °F16 %30.14 in10.0 miCalmClear
5:50 PM59.0 °F19.0 °F21 %30.14 in10.0 miCalmClear
6:50 PM55.0 °F16.0 °F22 %30.16 in10.0 miCalmClear
7:50 PM50.0 °F19.0 °F29 %30.17 in10.0 miWest (280°)5.8 mphClear
8:50 PM50.0 °F16.0 °F26 %30.17 in10.0 miSW (230°)3.5 mphClear
9:50 PM46.9 °F17.1 °F30 %30.18 in10.0 miWest (260°)5.8 mphClear
11:50 PM46.0 °F16.0 °F30 %30.18 in10.0 miWSW (240°)9.2 mphClear
Hourly data recorded from KDAG, located miles away from Sierra Heights, California







STORIES FROM OUR PARTNERS